TimeMST,TemperatureF,Dew PointF,Humidity,Sea Level PressureIn,VisibilityMPH,Wind Direction,Wind SpeedMPH,Gust SpeedMPH,PrecipitationIn,Events,Conditions,WindDirDegrees,DateUTC
12:53 AM,14.0,5.0,67,30.27,10.0,SW,11.5,-,N/A,,Clear,230,2012-11-12 07:53:00
1:53 AM,12.9,5.0,71,30.27,10.0,SW,12.7,-,N/A,,Clear,230,2012-11-12 08:53:00
2:53 AM,14.0,5.0,67,30.28,10.0,SW,13.8,-,N/A,,Clear,220,2012-11-12 09:53:00
3:53 AM,14.0,5.0,67,30.29,10.0,SW,13.8,-,N/A,,Clear,220,2012-11-12 10:53:00
4:53 AM,14.0,5.0,67,30.12,10.0,SW,6.9,-,N/A,,Clear,220,2012-11-12 11:53:00
5:53 AM,16.0,6.1,65,30.31,10.0,SW,11.5,-,N/A,,Clear,220,2012-11-12 12:53:00
6:53 AM,18.0,8.1,65,30.32,10.0,SW,15.0,-,N/A,,Clear,220,2012-11-12 13:53:00
7:53 AM,19.9,10.0,65,30.32,10.0,SSW,15.0,-,N/A,,Clear,210,2012-11-12 14:53:00
8:53 AM,25.0,12.9,60,30.32,10.0,SSW,15.0,-,N/A,,Clear,210,2012-11-12 15:53:00
9:53 AM,28.9,17.1,61,30.31,10.0,SSW,15.0,-,N/A,,Clear,210,2012-11-12 16:53:00
10:53 AM,30.9,19.0,61,30.30,10.0,SW,17.3,-,N/A,,Clear,220,2012-11-12 17:53:00
11:53 AM,33.1,19.9,59,30.28,10.0,SW,12.7,-,N/A,,Clear,220,2012-11-12 18:53:00
12:53 PM,34.0,21.9,61,30.25,10.0,SW,13.8,-,N/A,,Clear,220,2012-11-12 19:53:00
1:53 PM,36.0,21.9,57,30.25,10.0,SW,13.8,-,N/A,,Clear,220,2012-11-12 20:53:00
2:53 PM,36.0,23.0,59,30.24,10.0,SW,12.7,-,N/A,,Clear,220,2012-11-12 21:53:00
3:53 PM,34.0,21.9,61,30.25,10.0,SW,10.4,-,N/A,,Clear,230,2012-11-12 22:53:00
4:53 PM,32.0,21.0,64,30.26,10.0,SW,12.7,-,N/A,,Clear,220,2012-11-12 23:53:00
5:53 PM,32.0,21.0,64,30.26,10.0,SW,11.5,-,N/A,,Clear,220,2012-11-13 00:53:00
6:53 PM,30.9,21.0,67,30.24,10.0,South,8.1,-,N/A,,Clear,180,2012-11-13 01:53:00
7:53 PM,32.0,21.0,64,30.24,10.0,SW,13.8,-,N/A,,Clear,220,2012-11-13 02:53:00
8:53 PM,32.0,19.9,61,30.21,10.0,SW,18.4,-,N/A,,Clear,220,2012-11-13 03:53:00
9:53 PM,30.9,19.9,64,30.19,10.0,SW,18.4,-,N/A,,Clear,220,2012-11-13 04:53:00
10:53 PM,30.9,19.0,61,30.18,10.0,SW,13.8,-,N/A,,Clear,230,2012-11-13 05:53:00
11:53 PM,30.9,19.0,61,30.18,10.0,South,10.4,-,N/A,,Clear,190,2012-11-13 06:53:00